| time (UTC) | temp F | wind direction | speed MPH | gust MPH | rain 1hr in | rain 24hr in | rain mn in | humidity % | barometer mb |
| 20260902081726 | 81 | 337 | 2.0 | 8.0 | 0.00 | 0.00 | 0.00 | 17 | 1017.5 |
| 20260902081221 | 80 | 331 | 5.0 | 5.0 | 0.00 | 0.00 | 0.00 | 16 | 1017.5 |
| 20260902080715 | 81 | 339 | 3.0 | 7.0 | 0.00 | 0.00 | 0.00 | 16 | 1017.2 |
| 20260902080207 | 80 | 12 | 6.0 | 9.0 | 0.00 | 0.00 | 0.00 | 17 | 1017.2 |
| 20260902075706 | 80 | 20 | 2.0 | 9.0 | 0.00 | 0.00 | 0.00 | 17 | 1017.4 |
| 20260902075202 | 80 | 350 | 4.0 | 6.0 | 0.00 | 0.00 | 0.00 | 17 | 1017.3 |
| 20260902074657 | 80 | 18 | 6.0 | 8.0 | 0.00 | 0.00 | 0.00 | 17 | 1017.3 |
| 20260902074152 | 80 | 16 | 3.0 | 6.0 | 0.00 | 0.00 | 0.00 | 17 | 1017.3 |
| 20260902073647 | 80 | 358 | 3.0 | 6.0 | 0.00 | 0.00 | 0.00 | 17 | 1017.4 |
| 20260902073144 | 80 | 359 | 3.0 | 6.0 | 0.00 | 0.00 | 0.00 | 17 | 1017.3 |
| 20260902072639 | 80 | 299 | 0.0 | 5.0 | 0.00 | 0.00 | 0.00 | 18 | 1017.2 |
| 20260902072135 | 79 | 355 | 2.0 | 3.0 | 0.00 | 0.00 | 0.00 | 18 | 1017.4 |
| 20260902071630 | 78 | 31 | 1.0 | 5.0 | 0.00 | 0.00 | 0.00 | 19 | 1017.3 |
| 20260902071126 | 76 | 86 | 0.0 | 2.0 | 0.00 | 0.00 | 0.00 | 22 | 1017.4 |
| 20260902070621 | 76 | 274 | 2.0 | 2.0 | 0.00 | 0.00 | 0.00 | 22 | 1017.3 |
| 20260902070116 | 77 | 18 | 2.0 | 2.0 | 0.00 | 0.00 | 0.00 | 21 | 1017.1 |
| 20260902065615 | 78 | 229 | 0.0 | 1.0 | 0.00 | 0.00 | 0.00 | 21 | 1017.2 |
| 20260902065111 | 78 | 282 | 0.0 | 3.0 | 0.00 | 0.00 | 0.00 | 21 | 1017.4 |
| 20260902064607 | 77 | 165 | 0.0 | 2.0 | 0.00 | 0.00 | 0.00 | 21 | 1017.3 |
| 20260902064101 | 78 | 299 | 2.0 | 5.0 | 0.00 | 0.00 | 0.00 | 21 | 1017.1 |
| 20260902063556 | 79 | 224 | 0.0 | 2.0 | 0.00 | 0.00 | 0.00 | 20 | 1017.1 |
| 20260902063051 | 77 | 312 | 2.0 | 3.0 | 0.00 | 0.00 | 0.00 | 20 | 1017.1 |
| 20260902062549 | 77 | 357 | 1.0 | 3.0 | 0.00 | 0.00 | 0.00 | 22 | 1017.1 |
| 20260902062046 | 77 | 68 | 0.0 | 2.0 | 0.00 | 0.00 | 0.00 | 22 | 1017.2 |
| 20260902061545 | 78 | 234 | 2.0 | 3.0 | 0.00 | 0.00 | 0.00 | 21 | 1017.0 |
| 20260902061041 | 77 | 297 | 2.0 | 2.0 | 0.00 | 0.00 | 0.00 | 21 | 1017.1 |
| 20260902060537 | 77 | 57 | 1.0 | 2.0 | 0.00 | 0.00 | 0.00 | 22 | 1016.9 |
| 20260902060034 | 77 | 355 | 1.0 | 2.0 | 0.00 | 0.00 | 0.00 | 22 | 1016.9 |
| 20260902055529 | 78 | 100 | 0.0 | 1.0 | 0.00 | 0.00 | 0.00 | 21 | 1017.0 |
| 20260902055024 | 78 | 128 | 0.0 | 2.0 | 0.00 | 0.00 | 0.00 | 21 | 1017.0 |
| 20260902054519 | 77 | 147 | 0.0 | 2.0 | 0.00 | 0.00 | 0.00 | 22 | 1016.8 |
| 20260902054015 | 78 | 158 | 0.0 | 1.0 | 0.00 | 0.00 | 0.00 | 22 | 1016.9 |
| 20260902053510 | 79 | 224 | 0.0 | 2.0 | 0.00 | 0.00 | 0.00 | 22 | 1016.9 |
| 20260902053010 | 81 | 263 | 0.0 | 2.0 | 0.00 | 0.00 | 0.00 | 20 | 1016.8 |
| 20260902052504 | 82 | 316 | 4.0 | 6.0 | 0.00 | 0.00 | 0.00 | 19 | 1017.0 |
| 20260902052000 | 82 | 68 | 0.0 | 2.0 | 0.00 | 0.00 | 0.00 | 19 | 1016.9 |
| 20260902051500 | 82 | 17 | 2.0 | 5.0 | 0.00 | 0.00 | 0.00 | 19 | 1017.0 |
| 20260902050958 | 82 | 357 | 2.0 | 5.0 | 0.00 | 0.00 | 0.00 | 19 | 1017.1 |
| 20260902050453 | 81 | 329 | 1.0 | 2.0 | 0.00 | 0.00 | 0.00 | 20 | 1017.1 |
| 20260902045948 | 82 | 64 | 0.0 | 4.0 | 0.00 | 0.00 | 0.00 | 20 | 1016.9 |
| 20260902045444 | 83 | 52 | 2.0 | 2.0 | 0.00 | 0.00 | 0.00 | 21 | 1017.0 |
| 20260902044940 | 82 | 77 | 3.0 | 3.0 | 0.00 | 0.00 | 0.00 | 22 | 1017.0 |
| 20260902044435 | 82 | 101 | 1.0 | 3.0 | 0.00 | 0.00 | 0.00 | 21 | 1017.0 |
| 20260902043930 | 82 | 74 | 0.0 | 2.0 | 0.00 | 0.00 | 0.00 | 21 | 1016.8 |
| 20260902043425 | 83 | 236 | 2.0 | 4.0 | 0.00 | 0.00 | 0.00 | 20 | 1016.8 |
| 20260902042920 | 83 | 239 | 2.0 | 3.0 | 0.00 | 0.00 | 0.00 | 21 | 1016.6 |
| 20260902042419 | 83 | 130 | 1.0 | 2.0 | 0.00 | 0.00 | 0.00 | 21 | 1016.5 |
| 20260902041915 | 84 | 123 | 2.0 | 2.0 | 0.00 | 0.00 | 0.00 | 20 | 1016.6 |
| 20260902041409 | 85 | 109 | 2.0 | 3.0 | 0.00 | 0.00 | 0.00 | 18 | 1016.6 |
| 20260902040911 | 85 | 197 | 0.0 | 2.0 | 0.00 | 0.00 | 0.00 | 18 | 1016.2 |
| 20260902040403 | 86 | 347 | 2.0 | 4.0 | 0.00 | 0.00 | 0.00 | 18 | 1016.2 |
| 20260902035902 | 86 | 353 | 2.0 | 6.0 | 0.00 | 0.00 | 0.00 | 18 | 1016.0 |
| 20260902035352 | 86 | 10 | 1.0 | 3.0 | 0.00 | 0.00 | 0.00 | 19 | 1015.9 |
| 20260902034851 | 87 | 111 | 0.0 | 2.0 | 0.00 | 0.00 | 0.00 | 19 | 1015.9 |
| 20260902034347 | 87 | 317 | 4.0 | 5.0 | 0.00 | 0.00 | 0.00 | 18 | 1015.9 |
| 20260902033845 | 86 | 322 | 0.0 | 2.0 | 0.00 | 0.00 | 0.00 | 19 | 1015.8 |
| 20260902033340 | 86 | 0 | 0.0 | 2.0 | 0.00 | 0.00 | 0.00 | 20 | 1015.6 |
| 20260902032839 | 87 | 30 | 2.0 | 2.0 | 0.00 | 0.00 | 0.00 | 19 | 1015.7 |
| 20260902032338 | 87 | 290 | 0.0 | 4.0 | 0.00 | 0.00 | 0.00 | 19 | 1015.5 |
| 20260902031833 | 88 | 250 | 4.0 | 7.0 | 0.00 | 0.00 | 0.00 | 19 | 1015.4 |
| 20260902031329 | 88 | 280 | 1.0 | 7.0 | 0.00 | 0.00 | 0.00 | 19 | 1015.2 |
| 20260902030819 | 88 | 333 | 5.0 | 11.0 | 0.00 | 0.00 | 0.00 | 19 | 1015.2 |
| 20260902030313 | 88 | 298 | 6.0 | 6.0 | 0.00 | 0.00 | 0.00 | 19 | 1015.1 |
| 20260902025813 | 88 | 264 | 6.0 | 10.0 | 0.00 | 0.00 | 0.00 | 19 | 1015.3 |
| 20260902025309 | 88 | 303 | 6.0 | 11.0 | 0.00 | 0.00 | 0.00 | 19 | 1015.1 |
| 20260902024803 | 88 | 339 | 4.0 | 10.0 | 0.00 | 0.00 | 0.00 | 18 | 1014.9 |
| 20260902024258 | 89 | 328 | 7.0 | 11.0 | 0.00 | 0.00 | 0.00 | 18 | 1014.9 |
| 20260902023754 | 89 | 303 | 4.0 | 17.0 | 0.00 | 0.00 | 0.00 | 19 | 1014.7 |
| 20260902023249 | 89 | 271 | 4.0 | 16.0 | 0.00 | 0.00 | 0.00 | 18 | 1014.6 |
| 20260902022748 | 90 | 279 | 7.0 | 17.0 | 0.00 | 0.00 | 0.00 | 19 | 1014.5 |
| 20260902022244 | 89 | 327 | 7.0 | 12.0 | 0.00 | 0.00 | 0.00 | 20 | 1014.6 |
| 20260902021739 | 90 | 244 | 10.0 | 15.0 | 0.00 | 0.00 | 0.00 | 22 | 1014.5 |
| 20260902021233 | 90 | 293 | 7.0 | 12.0 | 0.00 | 0.00 | 0.00 | 22 | 1014.3 |
| 20260902020730 | 90 | 244 | 15.0 | 17.0 | 0.00 | 0.00 | 0.00 | 22 | 1014.3 |
| 20260902020225 | 91 | 229 | 8.0 | 10.0 | 0.00 | 0.00 | 0.00 | 22 | 1014.3 |
| 20260902015720 | 91 | 312 | 4.0 | 9.0 | 0.00 | 0.00 | 0.00 | 22 | 1014.3 |
| 20260902015217 | 91 | 291 | 6.0 | 11.0 | 0.00 | 0.00 | 0.00 | 21 | 1014.4 |
| 20260902014712 | 92 | 262 | 8.0 | 14.0 | 0.00 | 0.00 | 0.00 | 19 | 1013.9 |
| 20260902014209 | 92 | 239 | 12.0 | 17.0 | 0.00 | 0.00 | 0.00 | 20 | 1014.0 |
| 20260902013707 | 93 | 296 | 8.0 | 19.0 | 0.00 | 0.00 | 0.00 | 20 | 1014.0 |
| 20260902013203 | 92 | 284 | 6.0 | 15.0 | 0.00 | 0.00 | 0.00 | 20 | 1013.9 |
| 20260902012658 | 93 | 230 | 1.0 | 6.0 | 0.00 | 0.00 | 0.00 | 19 | 1013.9 |
| 20260902012153 | 93 | 271 | 5.0 | 17.0 | 0.00 | 0.00 | 0.00 | 18 | 1013.8 |
| 20260902011648 | 93 | 280 | 6.0 | 17.0 | 0.00 | 0.00 | 0.00 | 19 | 1013.7 |
| 20260902011143 | 93 | 246 | 5.0 | 12.0 | 0.00 | 0.00 | 0.00 | 21 | 1013.9 |
| 20260902010642 | 95 | 279 | 7.0 | 17.0 | 0.00 | 0.00 | 0.00 | 21 | 1013.8 |
| 20260902010139 | 95 | 263 | 5.0 | 13.0 | 0.00 | 0.00 | 0.00 | 20 | 1013.7 |
| 20260902005636 | 96 | 3 | 3.0 | 7.0 | 0.00 | 0.00 | 0.00 | 21 | 1014.0 |
| 20260902005132 | 98 | 312 | 4.0 | 17.0 | 0.00 | 0.00 | 0.00 | 18 | 1013.9 |
| 20260902004632 | 96 | 241 | 5.0 | 12.0 | 0.00 | 0.00 | 0.00 | 20 | 1014.1 |
| 20260902004127 | 98 | 243 | 7.0 | 8.0 | 0.00 | 0.00 | 0.00 | 17 | 1014.1 |
| 20260902003622 | 98 | 286 | 5.0 | 10.0 | 0.00 | 0.00 | 0.00 | 19 | 1013.8 |
| 20260902003118 | 98 | 297 | 4.0 | 10.0 | 0.00 | 0.00 | 0.00 | 19 | 1014.1 |
| 20260902002613 | 98 | 267 | 6.0 | 10.0 | 0.00 | 0.00 | 0.00 | 18 | 1014.0 |
| 20260902002108 | 97 | 251 | 7.0 | 10.0 | 0.00 | 0.00 | 0.00 | 19 | 1014.1 |
| 20260902001602 | 98 | 241 | 10.0 | 16.0 | 0.00 | 0.00 | 0.00 | 18 | 1014.1 |
| 20260902001052 | 99 | 265 | 4.0 | 11.0 | 0.00 | 0.00 | 0.00 | 19 | 1013.9 |
| 20260902000546 | 99 | 312 | 5.0 | 10.0 | 0.00 | 0.00 | 0.00 | 18 | 1014.2 |
| 20260902000042 | 98 | 273 | 5.0 | 12.0 | 0.00 | 0.00 | 0.00 | 18 | 1014.0 |
| 20260901235541 | 100 | 262 | 5.0 | 13.0 | 0.00 | 0.00 | 0.00 | 19 | 1014.2 |
| 20260901235038 | 100 | 272 | 5.0 | 9.0 | 0.00 | 0.00 | 0.00 | 19 | 1014.0 |
| 20260901234536 | 99 | 247 | 9.0 | 16.0 | 0.00 | 0.00 | 0.00 | 19 | 1014.0 |
| 20260901234032 | 100 | 294 | 3.0 | 11.0 | 0.00 | 0.00 | 0.00 | 19 | 1014.2 |
| 20260901233531 | 100 | 234 | 14.0 | 17.0 | 0.00 | 0.00 | 0.00 | 19 | 1014.1 |
| 20260901233028 | 100 | 319 | 4.0 | 11.0 | 0.00 | 0.00 | 0.00 | 19 | 1014.1 |
| 20260901232523 | 100 | 233 | 3.0 | 11.0 | 0.00 | 0.00 | 0.00 | 19 | 1014.2 |
| 20260901232018 | 101 | 61 | 4.0 | 9.0 | 0.00 | 0.00 | 0.00 | 19 | 1014.3 |
| 20260901231514 | 100 | 232 | 10.0 | 19.0 | 0.00 | 0.00 | 0.00 | 18 | 1014.2 |
| 20260901231011 | 100 | 291 | 6.0 | 12.0 | 0.00 | 0.00 | 0.00 | 18 | 1014.2 |
| 20260901230510 | 102 | 261 | 4.0 | 10.0 | 0.00 | 0.00 | 0.00 | 17 | 1014.3 |
| 20260901230006 | 100 | 227 | 9.0 | 13.0 | 0.00 | 0.00 | 0.00 | 17 | 1014.3 |
| 20260901225500 | 100 | 288 | 3.0 | 12.0 | 0.00 | 0.00 | 0.00 | 17 | 1014.4 |
| 20260901224954 | 100 | 278 | 8.0 | 15.0 | 0.00 | 0.00 | 0.00 | 17 | 1014.4 |
| 20260901224450 | 102 | 251 | 4.0 | 9.0 | 0.00 | 0.00 | 0.00 | 16 | 1014.4 |
| 20260901223946 | 101 | 224 | 4.0 | 8.0 | 0.00 | 0.00 | 0.00 | 17 | 1014.5 |
| 20260901223442 | 101 | 257 | 8.0 | 12.0 | 0.00 | 0.00 | 0.00 | 17 | 1014.5 |
| 20260901222937 | 101 | 250 | 11.0 | 16.0 | 0.00 | 0.00 | 0.00 | 16 | 1014.5 |
| 20260901222433 | 102 | 249 | 9.0 | 11.0 | 0.00 | 0.00 | 0.00 | 16 | 1014.5 |
| 20260901221929 | 103 | 264 | 5.0 | 14.0 | 0.00 | 0.00 | 0.00 | 16 | 1014.5 |
| 20260901221425 | 102 | 233 | 9.0 | 14.0 | 0.00 | 0.00 | 0.00 | 16 | 1014.5 |
| 20260901220920 | 102 | 256 | 11.0 | 15.0 | 0.00 | 0.00 | 0.00 | 16 | 1014.5 |
| 20260901220419 | 102 | 244 | 6.0 | 11.0 | 0.00 | 0.00 | 0.00 | 16 | 1014.5 |
| 20260901215918 | 100 | 234 | 4.0 | 19.0 | 0.00 | 0.00 | 0.00 | 16 | 1014.7 |
| 20260901215416 | 101 | 252 | 6.0 | 17.0 | 0.00 | 0.00 | 0.00 | 17 | 1014.7 |
| 20260901214916 | 102 | 231 | 6.0 | 21.0 | 0.00 | 0.00 | 0.00 | 16 | 1014.7 |
| 20260901214414 | 103 | 243 | 15.0 | 17.0 | 0.00 | 0.00 | 0.00 | 15 | 1014.9 |
| 20260901213914 | 102 | 232 | 19.0 | 27.0 | 0.00 | 0.00 | 0.00 | 15 | 1014.7 |
| 20260901213409 | 103 | 221 | 9.0 | 16.0 | 0.00 | 0.00 | 0.00 | 15 | 1014.9 |
| 20260901212903 | 102 | 219 | 6.0 | 19.0 | 0.00 | 0.00 | 0.00 | 16 | 1015.0 |
| 20260901212358 | 102 | 230 | 13.0 | 17.0 | 0.00 | 0.00 | 0.00 | 16 | 1015.1 |
| 20260901211855 | 102 | 252 | 9.0 | 18.0 | 0.00 | 0.00 | 0.00 | 17 | 1015.2 |
| 20260901211350 | 103 | 240 | 9.0 | 15.0 | 0.00 | 0.00 | 0.00 | 16 | 1015.1 |
| 20260901210846 | 102 | 233 | 11.0 | 21.0 | 0.00 | 0.00 | 0.00 | 16 | 1015.1 |
| 20260901210341 | 102 | 231 | 12.0 | 21.0 | 0.00 | 0.00 | 0.00 | 15 | 1015.2 |
| 20260901205838 | 101 | 174 | 3.0 | 15.0 | 0.00 | 0.00 | 0.00 | 17 | 1015.2 |
| 20260901205337 | 101 | 219 | 4.0 | 16.0 | 0.00 | 0.00 | 0.00 | 17 | 1015.2 |
| 20260901204832 | 102 | 229 | 7.0 | 13.0 | 0.00 | 0.00 | 0.00 | 16 | 1015.4 |
| 20260901204329 | 102 | 232 | 10.0 | 21.0 | 0.00 | 0.00 | 0.00 | 16 | 1015.3 |
| 20260901203828 | 103 | 209 | 8.0 | 12.0 | 0.00 | 0.00 | 0.00 | 16 | 1015.3 |
| 20260901203322 | 102 | 217 | 7.0 | 13.0 | 0.00 | 0.00 | 0.00 | 15 | 1015.4 |
| 20260901202817 | 101 | 217 | 13.0 | 20.0 | 0.00 | 0.00 | 0.00 | 15 | 1015.5 |
| 20260901202312 | 101 | 230 | 10.0 | 18.0 | 0.00 | 0.00 | 0.00 | 16 | 1015.4 |
| 20260901201809 | 102 | 250 | 13.0 | 19.0 | 0.00 | 0.00 | 0.00 | 15 | 1015.5 |
| 20260901201308 | 102 | 229 | 9.0 | 18.0 | 0.00 | 0.00 | 0.00 | 16 | 1015.7 |
| 20260901200802 | 102 | 202 | 5.0 | 13.0 | 0.00 | 0.00 | 0.00 | 16 | 1015.6 |
| 20260901200258 | 101 | 246 | 4.0 | 5.0 | 0.00 | 0.00 | 0.00 | 17 | 1015.7 |
| 20260901195755 | 102 | 348 | 7.0 | 8.0 | 0.00 | 0.00 | 0.00 | 17 | 1015.5 |
| 20260901195249 | 101 | 103 | 2.0 | 3.0 | 0.00 | 0.00 | 0.00 | 17 | 1015.9 |
| 20260901194745 | 102 | 259 | 2.0 | 4.0 | 0.00 | 0.00 | 0.00 | 17 | 1015.6 |
| 20260901194240 | 102 | 344 | 1.0 | 4.0 | 0.00 | 0.00 | 0.00 | 18 | 1015.7 |
| 20260901193736 | 100 | 336 | 5.0 | 6.0 | 0.00 | 0.00 | 0.00 | 18 | 1016.0 |
| 20260901193235 | 98 | 236 | 1.0 | 10.0 | 0.00 | 0.00 | 0.00 | 18 | 1016.0 |
| 20260901192730 | 100 | 238 | 2.0 | 6.0 | 0.00 | 0.00 | 0.00 | 18 | 1016.1 |
| 20260901192225 | 99 | 75 | 4.0 | 5.0 | 0.00 | 0.00 | 0.00 | 18 | 1016.0 |
| 20260901191721 | 100 | 56 | 2.0 | 7.0 | 0.00 | 0.00 | 0.00 | 18 | 1016.1 |
| 20260901191219 | 100 | 83 | 2.0 | 4.0 | 0.00 | 0.00 | 0.00 | 18 | 1016.3 |
| 20260901190713 | 100 | 76 | 4.0 | 5.0 | 0.00 | 0.00 | 0.00 | 18 | 1016.1 |
| 20260901190212 | 98 | 358 | 4.0 | 6.0 | 0.00 | 0.00 | 0.00 | 19 | 1016.3 |
| 20260901185711 | 100 | 357 | 5.0 | 8.0 | 0.00 | 0.00 | 0.00 | 19 | 1016.5 |
| 20260901185209 | 100 | 83 | 0.0 | 3.0 | 0.00 | 0.00 | 0.00 | 18 | 1016.6 |
| 20260901184705 | 98 | 269 | 0.0 | 5.0 | 0.00 | 0.00 | 0.00 | 19 | 1016.7 |
| 20260901184159 | 98 | 286 | 0.0 | 3.0 | 0.00 | 0.00 | 0.00 | 19 | 1016.8 |
| 20260901183650 | 97 | 96 | 3.0 | 6.0 | 0.00 | 0.00 | 0.00 | 19 | 1016.7 |
| 20260901183149 | 98 | 101 | 3.0 | 6.0 | 0.00 | 0.00 | 0.00 | 19 | 1016.8 |
| 20260901182646 | 98 | 98 | 5.0 | 8.0 | 0.00 | 0.00 | 0.00 | 18 | 1016.7 |
| 20260901182144 | 97 | 85 | 5.0 | 5.0 | 0.00 | 0.00 | 0.00 | 19 | 1016.7 |
| 20260901181639 | 96 | 113 | 2.0 | 8.0 | 0.00 | 0.00 | 0.00 | 19 | 1016.9 |
| 20260901181134 | 98 | 77 | 3.0 | 5.0 | 0.00 | 0.00 | 0.00 | 18 | 1017.0 |
| 20260901180634 | 97 | 2 | 2.0 | 7.0 | 0.00 | 0.00 | 0.00 | 18 | 1017.0 |
| 20260901180128 | 98 | 78 | 3.0 | 6.0 | 0.00 | 0.00 | 0.00 | 18 | 1017.0 |
| 20260901175627 | 98 | 96 | 2.0 | 4.0 | 0.00 | 0.00 | 0.00 | 18 | 1017.1 |
| 20260901175121 | 96 | 101 | 2.0 | 7.0 | 0.00 | 0.00 | 0.00 | 18 | 1017.1 |
| 20260901174617 | 97 | 75 | 3.0 | 6.0 | 0.00 | 0.00 | 0.00 | 17 | 1017.1 |
| 20260901174113 | 97 | 51 | 2.0 | 6.0 | 0.00 | 0.00 | 0.00 | 17 | 1017.1 |
| 20260901173607 | 96 | 0 | 0.0 | 3.0 | 0.00 | 0.00 | 0.00 | 17 | 1017.3 |
| 20260901173103 | 96 | 321 | 0.0 | 4.0 | 0.00 | 0.00 | 0.00 | 17 | 1017.1 |
| 20260901172559 | 97 | 86 | 3.0 | 4.0 | 0.00 | 0.00 | 0.00 | 17 | 1017.3 |
| 20260901172057 | 96 | 326 | 2.0 | 4.0 | 0.00 | 0.00 | 0.00 | 17 | 1017.1 |
| 20260901171556 | 96 | 78 | 2.0 | 2.0 | 0.00 | 0.00 | 0.00 | 16 | 1017.1 |
| 20260901171055 | 96 | 358 | 3.0 | 3.0 | 0.00 | 0.00 | 0.00 | 18 | 1017.3 |
| 20260901170549 | 96 | 103 | 2.0 | 3.0 | 0.00 | 0.00 | 0.00 | 16 | 1017.1 |
| 20260901170044 | 95 | 84 | 2.0 | 4.0 | 0.00 | 0.00 | 0.00 | 16 | 1016.9 |
| 20260901165543 | 93 | 76 | 0.0 | 4.0 | 0.00 | 0.00 | 0.00 | 17 | 1017.3 |
| 20260901165039 | 93 | 105 | 2.0 | 4.0 | 0.00 | 0.00 | 0.00 | 16 | 1017.3 |
| 20260901164535 | 94 | 77 | 2.0 | 4.0 | 0.00 | 0.00 | 0.00 | 15 | 1017.0 |
| 20260901164029 | 93 | 315 | 0.0 | 3.0 | 0.00 | 0.00 | 0.00 | 16 | 1017.1 |
| 20260901163525 | 94 | 259 | 1.0 | 2.0 | 0.00 | 0.00 | 0.00 | 15 | 1017.1 |
| 20260901163024 | 94 | 344 | 0.0 | 2.0 | 0.00 | 0.00 | 0.00 | 15 | 1017.0 |
| 20260901162519 | 93 | 89 | 1.0 | 2.0 | 0.00 | 0.00 | 0.00 | 15 | 1017.0 |
| 20260901162019 | 93 | 74 | 1.0 | 2.0 | 0.00 | 0.00 | 0.00 | 15 | 1017.0 |
| 20260901161518 | 93 | 60 | 0.0 | 3.0 | 0.00 | 0.00 | 0.00 | 15 | 1016.9 |
| 20260901161018 | 92 | 258 | 2.0 | 3.0 | 0.00 | 0.00 | 0.00 | 15 | 1017.0 |
| 20260901160514 | 92 | 103 | 2.0 | 3.0 | 0.00 | 0.00 | 0.00 | 15 | 1016.9 |
| 20260901160015 | 92 | 326 | 0.0 | 2.0 | 0.00 | 0.00 | 0.00 | 15 | 1016.7 |
| 20260901155513 | 93 | 43 | 2.0 | 2.0 | 0.00 | 0.00 | 0.00 | 15 | 1016.9 |
| 20260901155010 | 93 | 53 | 1.0 | 2.0 | 0.00 | 0.00 | 0.00 | 14 | 1016.9 |
| 20260901154510 | 91 | 269 | 0.0 | 2.0 | 0.00 | 0.00 | 0.00 | 15 | 1017.0 |
| 20260901154009 | 91 | 64 | 2.0 | 4.0 | 0.00 | 0.00 | 0.00 | 15 | 1016.9 |
| 20260901153505 | 89 | 74 | 1.0 | 4.0 | 0.00 | 0.00 | 0.00 | 15 | 1016.9 |
| 20260901153004 | 89 | 99 | 0.0 | 3.0 | 0.00 | 0.00 | 0.00 | 16 | 1016.7 |
| 20260901152459 | 89 | 269 | 0.0 | 2.0 | 0.00 | 0.00 | 0.00 | 16 | 1016.8 |
| 20260901151958 | 88 | 284 | 0.0 | 2.0 | 0.00 | 0.00 | 0.00 | 16 | 1016.8 |
| 20260901151454 | 88 | 85 | 0.0 | 2.0 | 0.00 | 0.00 | 0.00 | 16 | 1016.9 |
| 20260901150953 | 89 | 350 | 1.0 | 2.0 | 0.00 | 0.00 | 0.00 | 16 | 1016.9 |
| 20260901150451 | 87 | 113 | 0.0 | 2.0 | 0.00 | 0.00 | 0.00 | 17 | 1016.9 |
| 20260901145948 | 87 | 281 | 2.0 | 2.0 | 0.00 | 0.00 | 0.00 | 16 | 1016.9 |
| 20260901145443 | 86 | 282 | 0.0 | 2.0 | 0.00 | 0.00 | 0.00 | 18 | 1016.8 |
| 20260901144937 | 87 | 267 | 0.0 | 1.0 | 0.00 | 0.00 | 0.00 | 17 | 1016.7 |
| 20260901144432 | 87 | 65 | 1.0 | 2.0 | 0.00 | 0.00 | 0.00 | 16 | 1016.6 |
| 20260901143928 | 86 | 89 | 0.0 | 3.0 | 0.00 | 0.00 | 0.00 | 18 | 1016.8 |
| 20260901143424 | 84 | 207 | 2.0 | 3.0 | 0.00 | 0.00 | 0.00 | 19 | 1016.7 |
| 20260901142920 | 83 | 106 | 0.0 | 2.0 | 0.00 | 0.00 | 0.00 | 20 | 1016.8 |
| 20260901142420 | 82 | 250 | 1.0 | 2.0 | 0.00 | 0.00 | 0.00 | 20 | 1016.7 |
| 20260901141915 | 81 | 121 | 2.0 | 2.0 | 0.00 | 0.00 | 0.00 | 20 | 1016.6 |
| 20260901141410 | 79 | 178 | 1.0 | 2.0 | 0.00 | 0.00 | 0.00 | 22 | 1016.6 |
| 20260901140909 | 78 | 283 | 0.0 | 1.0 | 0.00 | 0.00 | 0.00 | 22 | 1016.6 |
| 20260901140402 | 77 | 143 | 0.0 | 1.0 | 0.00 | 0.00 | 0.00 | 22 | 1016.8 |
| 20260901135857 | 76 | 139 | 0.0 | 2.0 | 0.00 | 0.00 | 0.00 | 23 | 1016.6 |
| 20260901135352 | 75 | 239 | 0.0 | 2.0 | 0.00 | 0.00 | 0.00 | 23 | 1016.3 |
| 20260901134848 | 76 | 147 | 1.0 | 2.0 | 0.00 | 0.00 | 0.00 | 23 | 1016.5 |
| 20260901134343 | 76 | 193 | 2.0 | 2.0 | 0.00 | 0.00 | 0.00 | 23 | 1016.1 |
| 20260901133842 | 74 | 226 | 0.0 | 4.0 | 0.00 | 0.00 | 0.00 | 23 | 1016.2 |
| 20260901133341 | 76 | 39 | 0.0 | 3.0 | 0.00 | 0.00 | 0.00 | 23 | 1016.1 |
| 20260901132841 | 74 | 256 | 3.0 | 4.0 | 0.00 | 0.00 | 0.00 | 24 | 1016.0 |
| 20260901132336 | 77 | 85 | 1.0 | 3.0 | 0.00 | 0.00 | 0.00 | 23 | 1016.0 |
| 20260901131836 | 76 | 259 | 0.0 | 4.0 | 0.00 | 0.00 | 0.00 | 23 | 1016.0 |
| 20260901131335 | 77 | 44 | 1.0 | 2.0 | 0.00 | 0.00 | 0.00 | 23 | 1016.0 |
| 20260901130830 | 76 | 44 | 1.0 | 2.0 | 0.00 | 0.00 | 0.00 | 23 | 1016.0 |
| 20260901130325 | 73 | 341 | 1.0 | 3.0 | 0.00 | 0.00 | 0.00 | 25 | 1016.0 |
| 20260901125822 | 75 | 130 | 0.0 | 3.0 | 0.00 | 0.00 | 0.00 | 24 | 1016.0 |
| 20260901125317 | 74 | 244 | 0.0 | 2.0 | 0.00 | 0.00 | 0.00 | 24 | 1016.0 |
| 20260901124812 | 73 | 317 | 2.0 | 2.0 | 0.00 | 0.00 | 0.00 | 25 | 1015.8 |
| 20260901124307 | 73 | 180 | 0.0 | 1.0 | 0.00 | 0.00 | 0.00 | 25 | 1015.8 |
| 20260901123806 | 73 | 256 | 2.0 | 3.0 | 0.00 | 0.00 | 0.00 | 25 | 1015.7 |
| 20260901123302 | 73 | 219 | 0.0 | 2.0 | 0.00 | 0.00 | 0.00 | 26 | 1015.7 |
| 20260901122800 | 74 | 40 | 0.0 | 1.0 | 0.00 | 0.00 | 0.00 | 25 | 1015.9 |
| 20260901122255 | 74 | 235 | 0.0 | 1.0 | 0.00 | 0.00 | 0.00 | 26 | 1015.8 |
| 20260901121754 | 73 | 338 | 1.0 | 2.0 | 0.00 | 0.00 | 0.00 | 25 | 1015.8 |
| 20260901121249 | 75 | 166 | 1.0 | 2.0 | 0.00 | 0.00 | 0.00 | 25 | 1015.4 |
| 20260901120749 | 74 | 86 | 1.0 | 2.0 | 0.00 | 0.00 | 0.00 | 25 | 1015.5 |
| 20260901120244 | 75 | 185 | 1.0 | 2.0 | 0.00 | 0.00 | 0.00 | 25 | 1015.5 |
| 20260901115739 | 75 | 297 | 1.0 | 2.0 | 0.00 | 0.00 | 0.00 | 24 | 1015.6 |
| 20260901115235 | 75 | 168 | 0.0 | 2.0 | 0.00 | 0.00 | 0.00 | 25 | 1015.5 |
| 20260901114726 | 75 | 280 | 3.0 | 6.0 | 0.00 | 0.00 | 0.00 | 24 | 1015.6 |
| 20260901114221 | 76 | 239 | 0.0 | 4.0 | 0.00 | 0.00 | 0.00 | 24 | 1015.5 |
| 20260901113719 | 75 | 225 | 4.0 | 5.0 | 0.00 | 0.00 | 0.00 | 24 | 1015.5 |
| 20260901113215 | 76 | 297 | 0.0 | 2.0 | 0.00 | 0.00 | 0.00 | 24 | 1015.5 |
| 20260901112714 | 77 | 322 | 0.0 | 1.0 | 0.00 | 0.00 | 0.00 | 23 | 1015.4 |
| 20260901112209 | 78 | 269 | 0.0 | 2.0 | 0.00 | 0.00 | 0.00 | 22 | 1015.5 |
| 20260901111708 | 82 | 296 | 2.0 | 4.0 | 0.00 | 0.00 | 0.00 | 20 | 1015.3 |
| 20260901111202 | 80 | 278 | 4.0 | 5.0 | 0.00 | 0.00 | 0.00 | 20 | 1015.3 |
| 20260901110656 | 78 | 214 | 0.0 | 1.0 | 0.00 | 0.00 | 0.00 | 23 | 1015.4 |
| 20260901110152 | 81 | 231 | 1.0 | 3.0 | 0.00 | 0.00 | 0.00 | 21 | 1015.3 |
| 20260901105649 | 84 | 76 | 0.0 | 4.0 | 0.00 | 0.00 | 0.00 | 19 | 1015.4 |
| 20260901105148 | 80 | 163 | 5.0 | 6.0 | 0.00 | 0.00 | 0.00 | 21 | 1015.5 |
| 20260901104644 | 78 | 129 | 1.0 | 2.0 | 0.00 | 0.00 | 0.00 | 23 | 1015.6 |
| 20260901104139 | 78 | 176 | 2.0 | 3.0 | 0.00 | 0.00 | 0.00 | 24 | 1015.5 |
| 20260901103638 | 77 | 109 | 0.0 | 2.0 | 0.00 | 0.00 | 0.00 | 24 | 1015.4 |
| 20260901103134 | 77 | 202 | 0.0 | 1.0 | 0.00 | 0.00 | 0.00 | 24 | 1015.3 |
| 20260901102633 | 78 | 262 | 1.0 | 2.0 | 0.00 | 0.00 | 0.00 | 24 | 1015.6 |
| 20260901102128 | 78 | 306 | 0.0 | 2.0 | 0.00 | 0.00 | 0.00 | 24 | 1015.6 |
| 20260901101625 | 79 | 258 | 0.0 | 1.0 | 0.00 | 0.00 | 0.00 | 24 | 1015.7 |
| 20260901101124 | 80 | 37 | 0.0 | 1.0 | 0.00 | 0.00 | 0.00 | 23 | 1015.6 |
| 20260901100623 | 80 | 25 | 0.0 | 2.0 | 0.00 | 0.00 | 0.00 | 23 | 1015.8 |
| 20260901100118 | 81 | 109 | 1.0 | 3.0 | 0.00 | 0.00 | 0.00 | 22 | 1015.7 |
| 20260901095616 | 82 | 84 | 0.0 | 3.0 | 0.00 | 0.00 | 0.00 | 22 | 1015.6 |
| 20260901095114 | 81 | 75 | 3.0 | 3.0 | 0.00 | 0.00 | 0.00 | 22 | 1015.6 |
| 20260901094609 | 81 | 65 | 2.0 | 4.0 | 0.00 | 0.00 | 0.00 | 23 | 1015.5 |
| 20260901094103 | 82 | 48 | 1.0 | 3.0 | 0.00 | 0.00 | 0.00 | 22 | 1015.7 |
| 20260901093557 | 80 | 107 | 0.0 | 2.0 | 0.00 | 0.00 | 0.00 | 23 | 1015.6 |
| 20260901093052 | 79 | 223 | 0.0 | 2.0 | 0.00 | 0.00 | 0.00 | 25 | 1015.4 |
| 20260901092548 | 80 | 332 | 2.0 | 2.0 | 0.00 | 0.00 | 0.00 | 25 | 1015.5 |
| 20260901092044 | 81 | 49 | 0.0 | 2.0 | 0.00 | 0.00 | 0.00 | 23 | 1015.4 |
| 20260901091539 | 81 | 140 | 0.0 | 1.0 | 0.00 | 0.00 | 0.00 | 23 | 1015.4 |
| 20260901091034 | 82 | 11 | 0.0 | 2.0 | 0.00 | 0.00 | 0.00 | 23 | 1015.5 |
| 20260901090533 | 82 | 79 | 0.0 | 4.0 | 0.00 | 0.00 | 0.00 | 22 | 1015.6 |
| 20260901090029 | 80 | 129 | 3.0 | 3.0 | 0.00 | 0.00 | 0.00 | 25 | 1015.4 |
| 20260901085524 | 80 | 44 | 1.0 | 2.0 | 0.00 | 0.00 | 0.00 | 26 | 1015.5 |
| 20260901085020 | 81 | 82 | 2.0 | 4.0 | 0.00 | 0.00 | 0.00 | 26 | 1015.4 |
| 20260901084516 | 80 | 9 | 1.0 | 4.0 | 0.00 | 0.00 | 0.00 | 25 | 1015.7 |
| 20260901084012 | 79 | 269 | 0.0 | 2.0 | 0.00 | 0.00 | 0.00 | 27 | 1015.4 |
| 20260901083507 | 79 | 326 | 0.0 | 2.0 | 0.00 | 0.00 | 0.00 | 28 | 1015.3 |
| 20260901083005 | 79 | 123 | 0.0 | 2.0 | 0.00 | 0.00 | 0.00 | 27 | 1015.4 |
| 20260901082500 | 80 | 157 | 0.0 | 2.0 | 0.00 | 0.00 | 0.00 | 27 | 1015.4 |
| 20260901081955 | 81 | 68 | 0.0 | 3.0 | 0.00 | 0.00 | 0.00 | 27 | 1015.6 |